Regional Weather Roundup
Issued by NWS

Home | Current Version | Previous Version | Graphics & Text | Print | Product List | Glossary On
Versions: 1 2 3 4 5 6 7 8 9 10 11 12 13 14 15 16 17 18 19 20 21 22 23 24 25 26 27 28 29 30 31 32 33 34 35 36 37 38 39 40 41 42 43 44 45 46 47 48 49 50
670
ASUS43 KBIS 280402
RWRND

NORTH DAKOTA REGIONAL WEATHER ROUNDUP
NATIONAL WEATHER SERVICE BISMARCK ND
1100 PM CDT WED JUL 27 2016

NOTE: "FAIR" INDICATES FEW OR NO CLOUDS BELOW 12,000 FEET WITH NO
SIGNIFICANT WEATHER AND/OR OBSTRUCTIONS TO VISIBILITY.


NDZ001>003-009>011-017-280500-
NORTHWEST NORTH DAKOTA

CITY           SKY/WX    TMP DP  RH WIND       PRES   REMARKS
WILLISTON      PTCLDY    64  60  87 NE8       30.15R
MINOT          CLOUDY    68  61  78 N3        30.14R
MINOT AFB      MOCLDY    66  56  70 E7        30.14R
$$

NDZ018>021-031>035-040>046-280500-
SOUTHWEST NORTH DAKOTA

CITY           SKY/WX    TMP DP  RH WIND       PRES   REMARKS
BISMARCK       LGT RAIN  67  63  87 E5        30.13R
DICKINSON      MOCLDY    61  60  97 E8        30.14R
GARRISON         N/A     66  62  87 E3        30.15R
HETTINGER ARPT CLOUDY    59  56  89 CALM      30.18R
$$

NDZ004>008-012>016-024-026-027-054-280500-
NORTHEAST NORTH DAKOTA

CITY           SKY/WX    TMP DP  RH WIND       PRES   REMARKS
GRAND FORKS    PTCLDY    65  57  75 N12       30.09R
GRND FRKS AFB  CLEAR     64  57  79 N9        30.10R
DEVILS LAKE    CLEAR     60  57  89 NE7       30.15R
$$

NDZ022-023-025-028>030-036>039-047>053-280500-
SOUTHEAST NORTH DAKOTA

CITY           SKY/WX    TMP DP  RH WIND       PRES   REMARKS
FARGO          CLOUDY    66  60  81 N10       30.05S
JAMESTOWN      CLOUDY    62  59  90 NE6       30.11S
$$





USA.gov is the U.S. government's official web portal to all federal, state and local government web resources and services.